Location: Alpha Ridge Park
(39.3209°N, 76.9128°W)
Time: 05:04:17
(UTC-04:00)

Vanguard 2 Rocket - Pass Details

Date: 21 May 2019
Orbit: 554 x 3326 km, 32.9° (Epoch: 19 June)

Event Time Altitude Azimuth Distance (km) Brightness Sun altitude
Rises 05:03:38 0° 208° (SSW) 7,303 - -8.4°
Exits shadow 05:03:49 - 207° (SSW) 7,270 10.9 -8.4°
Reaches altitude 10° 05:09:52 10° 198° (SSW) 6,212 10.7 -7.4°
Maximum altitude 05:24:26 28° 149° (SSE) 4,251 10.3 -5.0°
Drops below altitude 10° 05:35:21 10° 98° (E) 4,661 11.4 -3.2°
Sets 05:39:06 0° 87° (E) 5,274 12.2 -2.6°
